When you browse on this site, cookies collect data to enhance your experience and personalize the content and advertising you see.
Visit our Privacy Policy to learn more. By continuing to use the site, you agree to this use of cookies and data.
  • In United Kingdom
  • List of Countries
  • For 7 days
  • Water Temperature
  • Satellite Maps
  • Weather Map
  • Weather Widgets
  • user-avatar
    Login

    Hourly Weather Mokhotlong

    Today, 23 February, Saturday

    Time Temperature Precipitation Wind Pressure Humidity
    00:00 +14°C° 0.1 mm 2 mps 585 mmHg 72%
    01:00 +13°C° 0.1 mm 2 mps 584 mmHg 71%
    02:00 +13°C° 0 mm 2 mps 584 mmHg 67%
    03:00 +13°C° 0 mm 2 mps 584 mmHg 68%
    04:00 +13°C° 0 mm 2 mps 583 mmHg 69%
    05:00 +12°C° 0 mm 2 mps 583 mmHg 71%
    06:00 +13°C° 0 mm 3 mps 584 mmHg 63%
    07:00 +16°C° 0 mm 3 mps 584 mmHg 55%
    08:00 +17°C° 0 mm 5 mps 586 mmHg 59%
    09:00 +19°C° 0 mm 5 mps 586 mmHg 50%
    10:00 +21°C° 0 mm 5 mps 586 mmHg 40%
    11:00 +23°C° 0 mm 6 mps 587 mmHg 31%
    12:00 +23°C° 0 mm 6 mps 586 mmHg 29%
    13:00 +24°C° 0 mm 7 mps 586 mmHg 28%
    14:00 +26°C° 0 mm 7 mps 586 mmHg 27%
    15:00 +24°C° 0 mm 7 mps 586 mmHg 27%
    16:00 +23°C° 0 mm 6 mps 585 mmHg 28%
    17:00 +23°C° 0 mm 6 mps 585 mmHg 28%
    18:00 +20°C° 0 mm 5 mps 584 mmHg 30%
    19:00 +18°C° 0 mm 4 mps 584 mmHg 32%
    20:00 +16°C° 0 mm 3 mps 583 mmHg 33%
    21:00 +15°C° 0 mm 2 mps 583 mmHg 38%
    22:00 +14°C° 0 mm 1 mps 583 mmHg 42%
    23:00 +13°C° 0 mm 1 mps 583 mmHg 47%

    Tomorrow, 24 February, Sunday

    Time Temperature Precipitation Wind Pressure Humidity
    00:00 +13°C° 0 mm 1 mps 583 mmHg 52%
    01:00 +12°C° 0 mm 1 mps 583 mmHg 58%
    02:00 +12°C° 0 mm 1 mps 582 mmHg 63%
    03:00 +11°C° 0 mm 1 mps 582 mmHg 61%
    04:00 +11°C° 0 mm 1 mps 582 mmHg 59%
    05:00 +11°C° 0 mm 1 mps 582 mmHg 57%
    06:00 +13°C° 0 mm 1 mps 583 mmHg 51%
    07:00 +16°C° 0 mm 1 mps 584 mmHg 45%
    08:00 +19°C° 0 mm 1 mps 586 mmHg 39%
    09:00 +21°C° 0 mm 1 mps 586 mmHg 35%
    10:00 +21°C° 0 mm 2 mps 587 mmHg 31%
    11:00 +24°C° 0 mm 2 mps 587 mmHg 28%
    12:00 +24°C° 0 mm 2 mps 587 mmHg 27%
    13:00 +25°C° 0 mm 2 mps 587 mmHg 27%
    14:00 +26°C° 0 mm 2 mps 587 mmHg 26%
    15:00 +25°C° 0.5 mm 2 mps 586 mmHg 32%
    16:00 +24°C° 0.5 mm 2 mps 586 mmHg 37%
    17:00 +23°C° 0.5 mm 2 mps 585 mmHg 42%
    18:00 +20°C° 0.7 mm 2 mps 585 mmHg 53%
    19:00 +18°C° 0.7 mm 1 mps 584 mmHg 64%
    20:00 +14°C° 0.7 mm 1 mps 584 mmHg 74%
    21:00 +14°C° 0.5 mm 1 mps 584 mmHg 76%
    22:00 +13°C° 0.5 mm 1 mps 585 mmHg 78%
    23:00 +13°C° 0.5 mm 1 mps 585 mmHg 80%

    Day after tomorrow, 25 February, Monday

    Time Temperature Precipitation Wind Pressure Humidity
    00:00 +12°C° 0.3 mm 1 mps 585 mmHg 82%
    01:00 +12°C° 0.3 mm 1 mps 584 mmHg 84%
    02:00 +11°C° 0.3 mm 1 mps 584 mmHg 85%
    03:00 +11°C° 0 mm 1 mps 584 mmHg 83%
    04:00 +11°C° 0 mm 1 mps 583 mmHg 82%
    05:00 +11°C° 0 mm 1 mps 583 mmHg 80%
    06:00 +13°C° 0 mm 1 mps 585 mmHg 68%
    07:00 +16°C° 0 mm 1 mps 586 mmHg 56%
    08:00 +18°C° 0 mm 2 mps 587 mmHg 44%
    09:00 +19°C° 0.1 mm 2 mps 588 mmHg 41%
    10:00 +21°C° 0.1 mm 2 mps 588 mmHg 37%
    11:00 +23°C° 0.1 mm 2 mps 588 mmHg 34%
    12:00 +23°C° 0.6 mm 2 mps 588 mmHg 36%
    13:00 +23°C° 0.6 mm 2 mps 587 mmHg 38%
    14:00 +23°C° 0.6 mm 2 mps 586 mmHg 39%
    15:00 +21°C° 1.1 mm 2 mps 586 mmHg 44%
    16:00 +21°C° 1.1 mm 1 mps 585 mmHg 48%
    17:00 +20°C° 1.1 mm 1 mps 584 mmHg 52%
    18:00 +19°C° 0.7 mm 1 mps 584 mmHg 59%
    19:00 +16°C° 0.7 mm 1 mps 583 mmHg 66%
    20:00 +14°C° 0.7 mm 2 mps 583 mmHg 73%
    21:00 +14°C° 0.5 mm 2 mps 583 mmHg 76%
    22:00 +14°C° 0.5 mm 2 mps 583 mmHg 78%
    23:00 +14°C° 0.5 mm 2 mps 583 mmHg 81%

    26 February, Tuesday

    Time Temperature Precipitation Wind Pressure Humidity
    00:00 +13°C° 0.1 mm 2 mps 583 mmHg 81%
    01:00 +13°C° 0.1 mm 2 mps 583 mmHg 82%
    02:00 +13°C° 0.1 mm 2 mps 583 mmHg 83%
    03:00 +13°C° 0 mm 2 mps 582 mmHg 81%
    04:00 +12°C° 0 mm 2 mps 582 mmHg 80%
    05:00 +12°C° 0 mm 2 mps 581 mmHg 79%
    06:00 +14°C° 0 mm 2 mps 582 mmHg 69%
    07:00 +16°C° 0 mm 2 mps 583 mmHg 59%
    08:00 +18°C° 0 mm 3 mps 584 mmHg 49%
    09:00 +19°C° 0 mm 5 mps 584 mmHg 41%
    10:00 +21°C° 0 mm 7 mps 584 mmHg 33%
    11:00 +23°C° 0 mm 9 mps 585 mmHg 24%
    12:00 +23°C° 0 mm 10 mps 584 mmHg 25%
    13:00 +24°C° 0 mm 10 mps 584 mmHg 25%
    14:00 +24°C° 0 mm 11 mps 583 mmHg 26%
    15:00 +23°C° 0 mm 11 mps 583 mmHg 27%
    16:00 +23°C° 0 mm 10 mps 583 mmHg 28%
    17:00 +22°C° 0 mm 10 mps 582 mmHg 30%
    18:00 +20°C° 0 mm 8 mps 582 mmHg 34%
    19:00 +17°C° 0 mm 6 mps 582 mmHg 38%
    20:00 +15°C° 0 mm 4 mps 581 mmHg 42%
    21:00 +14°C° 0 mm 3 mps 581 mmHg 43%
    22:00 +13°C° 0 mm 3 mps 581 mmHg 45%
    23:00 +13°C° 0 mm 2 mps 581 mmHg 46%

    27 February, Wednesday

    Time Temperature Precipitation Wind Pressure Humidity
    00:00 +12°C° 0 mm 2 mps 581 mmHg 42%
    01:00 +12°C° 0 mm 2 mps 581 mmHg 37%
    02:00 +10°C° 0 mm 2 mps 581 mmHg 32%
    03:00 +10°C° 0 mm 2 mps 581 mmHg 32%
    04:00 +10°C° 0 mm 2 mps 581 mmHg 32%
    05:00 +9°C° 0 mm 2 mps 581 mmHg 32%
    06:00 +12°C° 0 mm 2 mps 582 mmHg 34%
    07:00 +14°C° 0 mm 2 mps 583 mmHg 37%
    08:00 +16°C° 0 mm 3 mps 585 mmHg 39%
    09:00 +18°C° 0 mm 4 mps 585 mmHg 34%
    10:00 +20°C° 0 mm 6 mps 586 mmHg 30%
    11:00 +22°C° 0 mm 8 mps 587 mmHg 25%
    12:00 +22°C° 0 mm 8 mps 587 mmHg 24%
    13:00 +23°C° 0 mm 8 mps 587 mmHg 23%
    14:00 +23°C° 0 mm 8 mps 587 mmHg 22%
    15:00 +23°C° 0 mm 8 mps 586 mmHg 23%
    16:00 +22°C° 0 mm 7 mps 586 mmHg 24%
    17:00 +21°C° 0 mm 7 mps 586 mmHg 25%
    18:00 +17°C° 0 mm 5 mps 586 mmHg 35%
    19:00 +14°C° 0 mm 4 mps 585 mmHg 45%
    20:00 +12°C° 0 mm 2 mps 584 mmHg 54%
    21:00 +12°C° 0 mm 2 mps 584 mmHg 62%
    22:00 +10°C° 0 mm 2 mps 585 mmHg 70%
    23:00 +10°C° 0 mm 2 mps 585 mmHg 77%

    28 February, Thursday

    Time Temperature Precipitation Wind Pressure Humidity
    00:00 +9°C° 0 mm 2 mps 584 mmHg 78%
    01:00 +9°C° 0 mm 2 mps 584 mmHg 78%
    02:00 +8°C° 0 mm 2 mps 584 mmHg 79%
    03:00 +8°C° 0 mm 2 mps 584 mmHg 75%
    04:00 +7°C° 0 mm 2 mps 583 mmHg 70%
    05:00 +7°C° 0 mm 2 mps 583 mmHg 66%
    06:00 +10°C° 0 mm 2 mps 585 mmHg 57%
    07:00 +13°C° 0 mm 2 mps 586 mmHg 48%
    08:00 +16°C° 0 mm 3 mps 588 mmHg 39%
    09:00 +18°C° 0 mm 3 mps 589 mmHg 34%
    10:00 +19°C° 0 mm 3 mps 589 mmHg 30%
    11:00 +21°C° 0 mm 3 mps 590 mmHg 26%
    12:00 +22°C° 0 mm 4 mps 590 mmHg 26%
    13:00 +23°C° 0 mm 5 mps 590 mmHg 26%
    14:00 +24°C° 0 mm 6 mps 589 mmHg 26%
    15:00 +24°C° 0 mm 6 mps 589 mmHg 28%
    16:00 +23°C° 0 mm 6 mps 588 mmHg 31%
    17:00 +23°C° 0 mm 6 mps 588 mmHg 34%
    18:00 +20°C° 0 mm 5 mps 587 mmHg 42%
    19:00 +17°C° 0 mm 3 mps 586 mmHg 50%
    20:00 +15°C° 0 mm 2 mps 586 mmHg 57%
    21:00 +14°C° 0 mm 2 mps 586 mmHg 58%
    22:00 +13°C° 0 mm 1 mps 585 mmHg 58%
    23:00 +13°C° 0 mm 1 mps 585 mmHg 58%
    Show more